This is the latest recevied weather packets stored in our database for station/object KV4OP. If no packets are shown the sender has not sent any weather packets the latest 10 day(s).
| Time | Temp. | Humidity | Pressure | Rain* | Wind** | Luminosity | Snow |
|---|---|---|---|---|---|---|---|
| 1788041443 | 25° C | 76% | 1019.4 hPa | 5.08 mm | - | - | - |
| 1788041143 | 25° C | 76% | 1019.4 hPa | 4.06 mm | - | - | - |
| 1788040853 | 25° C | 74% | 1019.5 hPa | 2.29 mm | - | - | - |
| 1788040543 | 25.56° C | 73% | 1019.4 hPa | 2.29 mm | - | - | - |
| 1788040244 | 26.67° C | 71% | 1019 hPa | 1.52 mm | - | - | - |
| 1788039944 | 27.22° C | 69% | 1018.7 hPa | 0 mm | - | - | - |
| 1788039653 | 28.33° C | 66% | 1018.9 hPa | 0 mm | - | - | - |
| 1788039344 | 30° C | 65% | 1018.5 hPa | 0 mm | - | - | - |
| 1788039044 | 30.56° C | 66% | 1017.9 hPa | 0 mm | - | - | - |
| 1788038744 | 30.56° C | 67% | 1017.8 hPa | 0 mm | - | - | - |
| 1788038453 | 30.56° C | 67% | 1018.2 hPa | 0 mm | - | - | - |
| 1788038144 | 30.56° C | 67% | 1018.1 hPa | 0 mm | - | - | - |
| 1788037844 | 31.11° C | 66% | 1017.5 hPa | 0 mm | - | - | - |
| 1788037545 | 31.11° C | 65% | 1017.2 hPa | 0 mm | - | - | - |
| 1788037252 | 31.67° C | 63% | 1017.4 hPa | 0 mm | - | - | - |
| 1788036944 | 31.67° C | 64% | 1017.7 hPa | 0 mm | - | - | - |
| 1788036644 | 32.22° C | 64% | 1017.8 hPa | 0 mm | - | - | - |
| 1788036344 | 31.67° C | 65% | 1017.6 hPa | 0 mm | - | - | - |
| 1788036052 | 31.67° C | 66% | 1017.5 hPa | 0 mm | - | - | - |
| 1788035744 | 31.67° C | 65% | 1017.3 hPa | 0 mm | - | - | - |
| 1788035446 | 32.22° C | 65% | 1017.3 hPa | 0 mm | - | - | - |
| 1788035144 | 32.78° C | 64% | 1017.3 hPa | 0 mm | - | - | - |
| 1788034853 | 32.78° C | 64% | 1017.5 hPa | 0 mm | - | - | - |
| 1788034544 | 32.78° C | 65% | 1017.6 hPa | 0 mm | - | - | - |
| 1788034244 | 32.78° C | 66% | 1017.7 hPa | 0 mm | - | - | - |
* Rain latest hour (hover to see other rain measurements)
** Current wind speed in m/s (hover to see current wind gust speed)